Temp
21 21 21 21 21 20 20 20 20 20 20 19 19 19 19 19 19 19 19 19 18 18 18 18 18 18 18 18 19 18 18 18 18 19 18 18 18 17 17 17 18 18 18
22 22 20 21 20 20 20 20 20 20 20 19 19 18 19 19 18 18 18 18 18 18 18 18 17 18 18 19 19 19 17 18 18 18 19 19 18 17 16 17 18 18 17
22 22 21 20 20 20 20 20 19 19 19 19 19 18 19 19 19 18 18 18 18 18 18 18 17 19 18 19 19 19 19 18 18 17 17 19 18 17 17 17 18 18 17
23 22 22 20 19 19 19 19 19 19 19 19 19 19 19 19 19 18 18 17 18 18 17 17 18 18 18 19 19 18 18 17 17 17 17 17 19 18 17 17 17 18 17
22 22 22 21 20 19 19 19 19 19 19 19 19 19 18 18 18 18 18 17 18 17 17 17 18 18 18 19 19 18 18 17 17 17 17 18 18 18 17 17 18 18 17
22 22 22 21 21 20 19 19 19 19 19 19 19 19 18 18 18 18 18 18 18 17 17 18 18 18 19 19 18 18 18 18 17 17 18 18 19 18 18 18 17 17 18
21 21 21 21 21 20 20 19 19 19 19 19 19 19 18 18 18 18 18 18 18 17 18 18 18 18 19 19 19 18 18 18 17 17 18 19 18 18 18 18 18 18 18
23 20 20 20 20 20 20 20 18 18 19 18 18 19 19 18 17 18 18 18 18 18 17 18 17 18 18 19 19 18 18 18 18 17 19 19 18 19 19 18 18 18 18
20 20 19 19 20 20 20 20 19 19 19 19 18 18 19 18 18 18 18 18 18 18 17 18 17 18 19 19 19 19 18 19 18 17 18 18 19 20 19 19 18 18 18
20 21 20 19 18 19 20 20 19 19 18 18 18 18 18 18 18 18 18 18 18 18 18 17 18 18 19 19 19 19 19 19 19 18 18 18 19 20 20 19 19 18 17
20 21 21 20 19 19 19 19 19 19 19 18 18 18 19 18 18 18 18 18 18 18 18 18 18 19 19 19 19 19 19 18 19 18 19 18 19 19 20 19 19 19 18
21 21 20 20 20 19 18 19 19 19 19 19 18 18 18 18 18 18 18 18 18 18 18 18 18 19 19 19 19 20 19 19 18 18 18 18 18 19 19 20 19 19 18
22 21 20 20 19 19 19 18 18 19 19 18 18 18 18 17 17 18 18 17 18 19 18 18 18 19 19 19 18 19 19 19 19 18 19 19 19 19 19 19 19 19 19
23 22 21 21 20 19 19 18 18 18 18 18 18 17 17 17 17 17 18 18 18 19 18 18 18 18 18 18 18 18 19 19 19 18 19 18 19 18 19 19 19 19 19
22 22 21 20 20 19 19 18 18 18 17 18 18 18 18 18 17 17 18 18 18 18 18 18 18 18 18 18 18 17 18 19 18 18 19 18 18 18 18 18 19 19 19
22 21 21 20 20 20 19 19 18 18 18 18 18 18 18 18 18 18 18 18 18 19 18 18 18 18 18 18 17 18 18 18 19 19 18 18 19 18 18 18 18 18 18
22 21 21 20 21 19 18 18 18 18 18 18 18 18 19 18 18 18 18 18 19 19 18 18 18 18 18 18 18 18 19 19 19 19 19 19 19 18 19 18 18 18 18
22 21 21 20 21 20 20 18 18 18 18 18 18 18 19 19 19 18 18 17 17 18 18 18 18 18 18 18 19 19 19 19 19 19 19 19 19 19 19 19 18 18 18
22 21 20 20 20 20 20 19 18 18 18 18 18 19 19 18 18 19 18 18 18 17 18 18 18 18 18 19 19 18 19 19 19 19 19 19 19 19 19 19 18 18 19
22 21 21 20 20 20 19 19 18 18 18 18 17 18 17 18 18 18 18 17 18 17 18 18 18 18 18 18 18 18 18 19 19 19 19 18 19 18 18 17 17 17 18
22 21 21 20 20 21 20 20 19 18 18 18 18 17 17 17 17 17 18 18 18 19 19 19 19 18 18 18 18 18 19 18 18 19 19 18 18 18 18 18 17 17 17
22 22 22 21 21 21 20 19 19 18 18 18 18 18 18 17 17 17 17 17 18 19 19 18 18 18 17 17 17 18 18 18 18 18 18 18 18 18 18 17 17 17 17
22 22 22 22 21 20 20 19 19 18 18 18 18 18 17 17 17 16 17 16 17 18 18 18 18 18 17 17 17 17 17 18 18 18 19 18 17 16 16 17 17 17 17
23 22 21 21 21 20 19 19 19 19 18 18 18 18 18 18 17 17 17 16 17 17 17 17 17 17 17 17 17 17 17 17 17 17 17 17 17 17 16 16 17 16 16
22 21 21 21 20 19 19 18 19 19 18 18 18 18 18 18 18 17 17 16 16 16 17 17 17 17 17 17 17 17 16 16 16 17 17 17 17 16 16 17 16 16 17
22 21 21 20 20 19 19 18 18 18 18 18 18 18 18 18 18 17 17 17 17 17 17 16 16 16 16 16 16 16 16 16 17 17 17 17 16 16 16 16 16 16 16
Height
1520 1520 1522 1524 1527 1529 1531 1533 1535 1537 1539 1540 1542 1543 1543 1544 1545 1547 1548 1549 1550 1551 1552 1554 1555 1556 1556 1557 1558 1561 1562 1563 1564 1565 1566 1567 1567 1568 1569 1570 1572 1573 1574
1519 1522 1523 1524 1527 1530 1532 1533 1535 1537 1539 1541 1543 1544 1544 1545 1546 1547 1549 1550 1551 1552 1553 1555 1556 1556 1557 1558 1560 1563 1564 1565 1566 1567 1568 1569 1569 1570 1570 1571 1572 1574 1575
1521 1523 1525 1528 1529 1531 1532 1534 1536 1537 1540 1542 1543 1545 1545 1546 1547 1549 1550 1551 1552 1553 1554 1556 1557 1557 1558 1560 1562 1563 1565 1566 1567 1569 1570 1571 1571 1572 1572 1573 1574 1575 1577
1523 1525 1527 1530 1532 1533 1534 1535 1536 1538 1540 1542 1544 1545 1546 1547 1548 1550 1551 1552 1553 1554 1557 1557 1557 1558 1559 1561 1563 1565 1566 1568 1569 1569 1570 1572 1573 1574 1575 1575 1576 1577 1579
1525 1527 1527 1528 1531 1535 1537 1538 1538 1540 1541 1543 1545 1546 1547 1548 1549 1551 1552 1554 1554 1556 1557 1559 1559 1559 1561 1563 1565 1566 1567 1569 1570 1571 1572 1574 1576 1576 1576 1577 1578 1579 1579
1523 1527 1529 1529 1531 1533 1537 1540 1540 1541 1542 1544 1546 1547 1548 1550 1550 1552 1553 1554 1555 1557 1558 1559 1560 1561 1563 1564 1566 1568 1568 1570 1572 1572 1573 1576 1577 1578 1578 1578 1579 1580 1581
1525 1527 1529 1531 1531 1533 1535 1540 1541 1542 1543 1544 1546 1548 1550 1551 1552 1552 1554 1555 1556 1558 1559 1560 1561 1562 1565 1566 1567 1569 1570 1571 1573 1572 1575 1577 1577 1578 1579 1579 1580 1581 1581
1525 1531 1527 1530 1531 1532 1535 1537 1542 1542 1543 1544 1546 1548 1550 1552 1553 1553 1555 1556 1557 1558 1559 1561 1562 1563 1565 1567 1569 1570 1571 1573 1574 1573 1576 1577 1577 1578 1579 1580 1581 1582 1583
1513 1532 1526 1528 1530 1532 1534 1537 1541 1543 1544 1544 1546 1547 1550 1553 1553 1555 1555 1556 1558 1559 1560 1561 1563 1564 1566 1568 1569 1571 1572 1573 1575 1575 1577 1577 1577 1578 1579 1580 1582 1583 1584
1516 1520 1522 1526 1531 1531 1533 1536 1539 1542 1544 1544 1545 1547 1549 1552 1554 1555 1556 1557 1558 1560 1561 1561 1562 1564 1566 1568 1569 1571 1572 1574 1576 1577 1577 1578 1578 1578 1579 1580 1581 1582 1584
1523 1523 1524 1525 1528 1530 1532 1534 1537 1540 1543 1544 1545 1547 1549 1551 1553 1554 1556 1557 1558 1559 1561 1562 1562 1564 1565 1567 1569 1570 1572 1574 1575 1576 1576 1577 1578 1579 1579 1580 1581 1582 1583
1522 1524 1525 1525 1526 1529 1531 1533 1536 1539 1541 1543 1544 1546 1548 1550 1552 1554 1555 1557 1558 1559 1560 1561 1562 1563 1565 1567 1569 1571 1573 1574 1575 1575 1576 1578 1579 1579 1579 1580 1581 1582 1583
1521 1522 1523 1524 1526 1526 1530 1533 1536 1537 1539 1541 1543 1544 1547 1549 1551 1552 1554 1556 1557 1558 1559 1560 1562 1563 1564 1566 1568 1570 1572 1574 1575 1576 1576 1577 1578 1579 1579 1580 1581 1581 1582
1519 1521 1524 1525 1524 1526 1528 1532 1534 1536 1538 1539 1541 1544 1546 1548 1550 1551 1552 1554 1555 1556 1558 1559 1561 1562 1564 1565 1567 1568 1571 1572 1574 1574 1575 1577 1578 1578 1579 1580 1580 1580 1580
1517 1520 1521 1524 1524 1525 1526 1529 1532 1534 1538 1539 1540 1542 1545 1547 1550 1551 1551 1552 1553 1554 1555 1557 1559 1561 1563 1564 1566 1568 1569 1571 1572 1573 1574 1575 1576 1577 1578 1579 1578 1579 1580
1515 1517 1520 1522 1524 1525 1525 1527 1529 1533 1535 1536 1538 1540 1542 1545 1547 1548 1550 1550 1551 1553 1554 1555 1557 1559 1561 1563 1565 1566 1568 1569 1571 1572 1573 1573 1575 1575 1575 1575 1576 1576 1577
1514 1517 1519 1519 1521 1522 1523 1524 1527 1530 1532 1533 1536 1538 1540 1541 1543 1545 1547 1549 1552 1554 1553 1553 1555 1557 1559 1560 1562 1564 1566 1567 1568 1571 1571 1572 1572 1573 1573 1573 1574 1574 1575
1513 1515 1517 1519 1519 1519 1521 1521 1524 1526 1530 1532 1534 1536 1537 1538 1540 1542 1547 1550 1552 1555 1555 1552 1552 1554 1557 1558 1560 1561 1563 1565 1566 1568 1569 1569 1569 1570 1571 1571 1572 1571 1572
1511 1513 1514 1516 1518 1519 1520 1521 1524 1527 1530 1532 1533 1535 1535 1536 1537 1541 1546 1547 1548 1552 1554 1550 1550 1551 1554 1557 1558 1559 1560 1562 1563 1565 1566 1566 1566 1567 1567 1567 1568 1568 1568
1510 1511 1512 1514 1516 1519 1520 1521 1524 1526 1529 1530 1531 1531 1532 1533 1534 1537 1544 1545 1543 1551 1551 1548 1547 1549 1551 1554 1555 1555 1557 1558 1560 1561 1562 1563 1562 1562 1561 1561 1565 1566 1566
1509 1510 1511 1513 1515 1516 1518 1520 1522 1525 1527 1529 1530 1530 1530 1530 1530 1530 1536 1543 1545 1546 1544 1543 1544 1545 1548 1550 1552 1553 1553 1554 1556 1557 1558 1559 1558 1558 1557 1552 1559 1560 1560
1505 1508 1509 1511 1513 1515 1517 1519 1520 1522 1524 1525 1526 1526 1526 1524 1523 1524 1526 1531 1535 1538 1539 1539 1540 1543 1546 1548 1549 1551 1550 1552 1552 1554 1555 1553 1552 1553 1552 1552 1554 1552 1555
1500 1504 1506 1508 1511 1513 1515 1517 1519 1521 1522 1523 1523 1522 1521 1519 1518 1518 1521 1523 1526 1530 1534 1535 1538 1540 1542 1545 1546 1549 1548 1547 1549 1549 1550 1549 1549 1549 1549 1550 1551 1552 1551
1496 1501 1504 1507 1509 1511 1513 1515 1517 1519 1520 1521 1521 1518 1518 1518 1517 1517 1518 1521 1525 1527 1530 1533 1535 1536 1538 1540 1542 1542 1544 1545 1545 1546 1547 1547 1546 1546 1546 1546 1548 1548 1547
1493 1498 1501 1504 1506 1508 1510 1513 1515 1517 1518 1518 1518 1517 1517 1517 1517 1516 1518 1520 1519 1523 1527 1529 1531 1532 1533 1534 1535 1537 1539 1537 1539 1543 1543 1544 1544 1544 1544 1546 1544 1545 1543
1491 1494 1498 1501 1504 1506 1509 1512 1513 1514 1514 1515 1516 1516 1516 1517 1517 1517 1518 1520 1522 1523 1524 1526 1528 1529 1529 1528 1529 1530 1531 1534 1536 1537 1538 1539 1539 1540 1542 1542 1542 1541 1541
Wind_Speed
22 20 21 21 21 19 18 16 15 15 14 13 12 11 12 12 13 14 13 12 12 12 12 11 10 11 12 11 11 12 12 12 12 12 13 14 17 19 17 16 13 15 16
23 21 21 21 21 19 17 15 15 14 13 12 10 10 11 10 12 12 12 11 11 11 11 10 10 11 12 13 14 15 15 15 17 16 14 13 15 15 15 14 12 15 16
24 21 20 20 20 18 16 15 13 14 13 12 10 9 10 9 11 11 11 11 11 10 9 11 11 10 13 16 18 18 20 20 21 21 15 11 11 13 13 10 13 15 17
16 20 18 17 17 16 15 14 14 13 13 11 10 9 9 11 11 11 10 10 10 11 9 11 9 11 14 17 20 24 22 20 16 14 14 11 8 12 12 12 13 14 14
16 16 17 17 16 14 13 13 14 13 13 11 10 9 9 10 10 10 10 8 10 11 9 10 9 12 13 18 22 21 19 16 14 14 10 7 6 10 12 12 12 13 12
17 14 11 14 15 15 14 13 13 13 12 11 10 9 9 9 9 9 9 10 10 10 10 9 10 13 13 19 22 21 19 17 14 12 9 6 5 6 9 11 10 11 10
15 11 9 9 13 13 15 13 13 13 12 11 10 8 8 8 9 9 9 9 10 10 7 9 11 12 14 18 22 21 19 18 16 12 7 3 3 1 4 8 7 8 9
11 10 11 13 12 13 13 14 12 12 12 11 11 8 7 8 8 9 8 9 9 10 7 9 10 11 12 15 21 19 18 14 11 14 5 2 2 1 3 6 7 7 8
27 5 13 14 14 14 14 12 12 12 12 11 11 10 7 7 8 9 8 7 7 8 8 9 11 9 12 14 19 16 15 16 15 11 5 2 4 4 2 6 7 8 8
34 15 13 12 9 12 13 13 13 12 12 12 11 10 9 9 6 5 6 6 6 7 7 9 11 10 12 13 15 14 12 14 12 6 1 6 3 2 2 4 6 7 7
17 13 12 13 13 12 14 14 13 13 12 11 11 11 10 9 7 6 4 6 6 7 7 8 9 11 12 11 11 11 13 13 8 1 2 6 3 3 1 4 5 6 6
11 2 4 12 16 12 12 12 14 13 13 12 11 10 10 10 9 8 6 4 4 5 7 7 9 9 11 10 10 9 14 8 8 0 1 6 5 4 2 3 3 4 5
7 5 3 6 10 11 11 13 14 14 14 12 11 11 10 12 9 9 8 6 6 5 6 7 7 8 9 11 9 6 7 8 5 3 3 4 5 3 4 6 4 5 5
9 5 2 3 6 9 12 17 13 14 13 13 12 12 11 14 12 13 12 6 5 6 8 7 4 5 9 12 4 5 6 9 3 9 7 7 5 6 4 8 7 5 6
13 9 8 3 4 7 12 16 14 14 15 13 14 12 11 14 14 16 13 9 7 8 7 7 9 8 9 10 10 12 12 10 11 13 10 9 9 8 6 7 7 7 9
13 12 9 7 9 9 11 15 15 13 13 14 13 11 13 12 14 16 14 13 8 8 8 9 9 9 7 11 13 11 10 9 7 7 9 9 7 7 9 8 6 8 8
13 12 9 6 8 7 10 13 17 15 16 15 15 15 14 15 17 18 15 12 10 12 11 12 11 11 9 11 13 11 8 9 13 15 16 10 11 11 10 11 9 8 9
14 12 9 8 8 7 5 8 15 20 16 17 16 13 17 19 21 19 19 16 16 16 17 13 12 12 9 10 13 10 9 5 7 10 10 13 16 18 19 19 15 12 12
15 14 13 10 5 7 7 10 11 17 17 16 16 17 18 17 19 21 22 21 19 17 16 14 14 13 10 10 12 13 11 11 10 10 12 14 16 16 19 18 17 19 18
18 16 14 12 10 9 8 9 9 10 11 17 16 17 18 20 24 24 20 22 18 23 22 18 16 16 14 12 15 15 12 14 15 17 16 18 19 18 22 21 17 21 17
20 18 18 17 14 11 11 11 10 5 4 8 15 20 24 27 26 27 28 26 25 24 19 17 16 14 16 16 18 18 17 17 15 14 17 21 22 22 24 21 18 17 15
20 15 13 15 13 12 10 9 9 6 8 9 11 9 11 16 20 28 29 24 28 24 23 22 19 18 17 16 18 16 16 18 18 16 18 19 17 19 17 9 16 14 15
22 17 13 13 13 13 12 10 10 12 13 9 6 5 4 6 8 18 22 22 25 24 20 17 21 21 21 19 17 15 6 10 12 14 12 13 11 7 9 13 13 13 13
23 18 14 14 13 16 14 13 10 11 9 7 7 5 4 5 3 8 15 16 17 20 21 19 18 18 19 21 17 21 22 18 10 6 7 5 8 5 2 11 10 10 12
21 17 17 14 14 19 16 14 11 9 6 6 7 4 2 4 4 4 7 11 11 15 17 17 16 17 19 20 19 22 23 20 20 18 13 8 6 6 11 11 11 10 10
21 17 15 16 17 18 16 17 14 12 11 8 7 6 2 1 2 3 6 7 7 8 12 14 13 12 11 13 15 17 20 19 17 16 15 10 12 16 15 11 12 11 10
Wind_Direction
165 161 154 152 148 141 136 134 136 139 137 130 118 109 109 114 121 122 121 123 119 120 125 122 118 109 113 113 115 123 117 102 114 127 131 131 117 116 108 101 98 114 111
165 161 156 151 151 147 142 139 139 141 141 136 125 113 108 112 118 120 119 118 112 113 119 122 122 108 117 112 113 116 114 115 110 111 111 122 116 115 115 108 100 117 115
157 156 156 150 149 152 147 146 145 143 146 139 133 120 113 118 119 121 121 118 116 115 115 120 127 112 120 114 112 113 116 109 110 101 79 98 114 114 114 109 116 121 115
146 153 156 152 150 151 151 152 152 150 147 144 137 124 123 123 122 123 122 123 119 121 130 124 125 122 124 116 117 116 111 107 106 103 85 79 92 122 115 112 116 116 116
144 152 155 155 153 153 157 156 155 153 151 149 143 134 135 133 132 126 126 124 123 123 128 132 127 129 132 125 122 122 115 109 106 95 141 92 51 124 125 120 117 122 121
121 129 144 157 156 156 156 159 156 155 153 149 145 141 145 143 137 132 128 141 133 128 130 137 133 130 132 127 133 127 115 108 101 113 116 86 72 123 127 122 117 118 123
135 146 140 162 161 160 158 160 160 155 153 151 147 148 150 150 147 142 141 136 142 132 139 139 139 136 136 133 139 135 130 123 123 144 125 139 11 281 142 137 131 134 132
155 172 170 167 172 164 167 164 166 161 159 160 153 150 155 154 156 153 152 144 144 145 146 144 138 148 146 140 144 144 136 124 127 158 157 107 20 94 177 165 150 144 150
133 32 192 174 174 169 170 173 174 175 170 166 158 155 158 155 158 152 147 151 151 147 151 149 150 160 151 143 149 149 142 137 132 145 196 239 70 45 191 186 176 161 156
161 56 189 174 181 176 178 181 184 182 184 174 169 169 167 172 157 165 159 155 156 168 161 163 166 165 157 154 150 159 169 148 140 137 348 220 306 9 257 191 183 178 172
140 80 120 188 200 185 182 185 193 192 194 190 184 179 181 183 169 178 174 174 177 176 174 171 170 174 173 166 152 161 164 155 165 140 295 242 251 351 273 228 198 186 189
177 217 77 134 194 194 192 194 196 196 204 202 199 191 183 187 184 189 192 182 201 195 191 183 181 185 183 175 160 148 160 158 137 141 349 201 264 306 11 280 233 217 207
224 200 82 120 154 174 206 205 206 200 204 203 205 198 183 190 194 206 201 210 215 200 199 186 205 201 188 178 164 149 189 187 140 236 226 219 268 319 326 308 270 237 230
199 197 255 155 151 181 202 205 204 211 205 206 199 212 203 205 210 222 215 205 190 175 198 191 169 168 185 184 203 220 186 180 170 248 255 252 278 296 289 301 288 267 246
189 204 219 198 183 179 185 195 206 203 209 213 213 220 220 217 218 214 201 204 207 181 200 214 218 192 184 193 221 249 238 216 259 239 248 251 272 263 276 274 284 293 266
195 210 213 218 196 195 203 212 208 206 203 210 201 209 216 222 221 215 207 200 194 208 213 215 209 216 222 230 218 239 219 235 225 222 244 287 255 272 263 269 267 268 280
200 210 232 216 210 184 214 210 207 200 187 190 203 204 208 205 212 215 211 213 197 221 223 217 207 213 220 226 207 214 216 221 235 232 248 261 266 264 278 271 278 270 253
198 205 222 239 180 167 150 184 195 199 198 204 211 215 228 222 215 211 212 217 223 225 216 214 222 221 217 223 213 203 215 216 218 245 256 264 267 267 276 277 278 262 251
202 199 214 218 191 182 152 138 169 196 205 208 228 234 237 233 231 223 213 220 226 215 221 212 223 238 246 249 219 207 212 236 245 247 250 260 264 266 272 272 268 265 268
201 216 225 224 228 190 163 151 155 177 193 205 212 230 234 234 239 241 222 224 212 215 221 217 222 240 244 231 220 219 227 241 249 252 245 261 260 270 261 256 250 263 264
204 213 217 219 213 197 178 172 172 163 199 210 218 235 243 247 244 242 239 228 225 225 222 228 237 232 240 228 239 237 230 239 248 254 249 268 263 262 265 261 276 264 255
204 208 203 208 204 205 197 184 172 175 222 247 265 246 255 256 247 234 235 235 232 233 231 232 238 250 257 250 250 251 252 256 259 260 268 268 264 268 268 251 251 271 256
204 210 205 209 202 194 183 184 193 203 223 241 247 242 293 283 260 233 235 237 232 235 237 242 235 247 246 242 247 243 225 244 246 248 269 267 266 243 254 265 256 254 261
202 208 208 212 200 190 196 205 239 217 230 251 244 292 306 329 315 229 224 225 222 234 238 236 243 249 251 251 246 244 245 252 245 254 259 248 256 200 313 291 266 264 268
196 205 209 208 197 188 194 203 212 226 243 241 248 244 307 321 334 225 208 220 217 229 221 232 248 247 249 254 254 251 250 246 247 252 259 266 261 268 268 300 282 276 282
193 207 213 213 200 188 202 209 207 218 229 233 249 221 244 44 355 119 167 189 197 210 227 239 242 240 247 254 247 247 239 228 238 247 248 268 271 267 267 277 277 278 277